Regional Weather Roundup
Issued by NWS

Home | Current Version | Previous Version | Text Only | Print | Product List | Glossary Off
Versions: 1 2 3 4 5 6 7 8 9 10 11 12 13 14 15 16 17 18 19 20 21 22 23 24 25 26 27

000
ASUS45 KBOU 221807
RWRCO

WEATHER ROUNDUP FOR COLORADO
NATIONAL WEATHER SERVICE DENVER/BOULDER CO
1100 AM MST WED FEB 22 2017

NOTE: "FAIR" INDICATES FEW OR NO CLOUDS BELOW 12000 FEET WITH NO
SIGNIFICANT WEATHER AND/OR OBSTRUCTIONS TO VISIBILITY.

COZ001>005-013-030-031-221900-
...NORTHWEST COLORADO...

CITY           SKY/WX    TMP DP  RH WIND       PRES   REMARKS
CRAIG          PTSUNNY   36  28  73 N9        29.95F
HAYDEN         PTSUNNY   34  27  75 W3        29.94F
MEEKER         FAIR      46  30  53 SW13G20   29.90F
MOUNT WERNER   NOT AVBL
STEAMBOAT SPGS PTSUNNY   32  26  78 W3        29.94S
WALDEN         NOT AVBL
$$

COZ006>008-011-221900-
...WEST CENTRAL VALLEYS...

CITY           SKY/WX    TMP DP  RH WIND       PRES   REMARKS
GRAND JUNCTION PTSUNNY   55  33  43 W10       29.90F
MONTROSE       FAIR      52  25  35 SW13      29.96F
EAGLE          PTSUNNY   52  21  30 W25G33    29.91F
RIFLE          FAIR      57  20  23 W28G36    29.89F
DELTA          PTSUNNY   58  31  35 CALM      29.93F
NUCLA          FAIR      54  32  43 S17G23    30.01F
$$

COZ017>023-064>068-221900-
...SOUTHWEST COLORADO...

CITY           SKY/WX    TMP DP  RH WIND       PRES   REMARKS
DURANGO        FAIR      45  36  70 N5        30.09S
CORTEZ         FAIR      53  33  46 S6        30.03F
PAGOSA SPRINGS FAIR      42  33  71 S8        30.12S
TELLURIDE      FAIR      43   8  24 W12G25    30.07S
WOLF CREEK PAS SNOW      23  23 100 S23G33    30.17R VSB<1/4 WCI   7
$$

COZ009-010-012-014-032>034-037-058>063-221900-
...CENTRAL COLORADO...

CITY           SKY/WX    TMP DP  RH WIND       PRES   REMARKS
ASPEN          FAIR      46  18  32 VRB3      29.92F
BUENA VISTA    FAIR      49  15  25 SW14G24   29.95F
COPPER MTN     PTSUNNY   30  12  47 MISG      30.01S HAZE
BERTHOUD PASS  FAIR      23  12  63 W24G39    29.97R WCI   7
COTTONWOOD PAS PTSUNNY   41  12  30 SW17G35   29.98F
GUNNISON       FAIR      39  22  50 NE10      30.00F
KREMMLING      PTSUNNY   48  23  37 SW16G24   29.91F
LEADVILLE      FAIR      36  10  34 SW13G23   29.96F
MONARCH PASS   FAIR      27  16  63 SW28G37   30.15F WCI  11
SALIDA         FAIR      53  14  21 W13G23    30.04F
SUNLIGHT       NOT AVBL
WILKERSON PASS FAIR      34  12  40 SW13G29   30.04S WCI  25
$$

COZ069>075-221900-
...SAN LUIS VALLEY/SANGRE DE CRISTO MOUNTAINS...

CITY           SKY/WX    TMP DP  RH WIND       PRES   REMARKS
ALAMOSA        FAIR      50  21  32 SW29G40   30.01F
LA VETA PASS   PTSUNNY   36  23  60 NE21G37   30.10F
SAGUACHE       FAIR      52  18  25 W17G24    29.98F
$$

COZ035-036-038>040-221900-
...NORTHERN COLORADO FRONT RANGE...

CITY           SKY/WX    TMP DP  RH WIND       PRES   REMARKS
DENVER INTL AP FAIR      50  24  36 E17       29.86F
DMNS CITY PARK   N/A     52  23  31 E16G22    29.85F
AURORA         MOSUNNY   51  24  35 E17       29.87F
FRONT RANGE AP MOSUNNY   50  25  37 E14G21    29.89F
ERIE MUNI ARPT FAIR      51  22  32 E7        29.87F
BOULDER MUN AP FAIR      50  25  37 E6        29.86F
CENTENNIAL     FAIR      56  21  25 NW6       29.85F
BROOMFIELD     MOSUNNY   48  23  37 E7        29.88F
FORT COLLINS   FAIR      53  26  35 SE7       29.86F
LONGMONT       FAIR      53  25  33 E5        29.89F
$$

COZ041-046-047-076>085-087-088-221900-
...PIKES PEAK/PALMER DIVIDE AND SOUTHERN FOOTHILLS...

CITY           SKY/WX    TMP DP  RH WIND       PRES   REMARKS
COLO. SPRINGS  FAIR      62   6  11 W24G35    29.88F
A. F. ACADEMY  FAIR      58   8  13 W20G26    29.86F
SCHRIEVER AFB  FAIR      61   9  12 SW22G35   29.87F
ELLICOTT       FAIR     N/A N/A N/A W21G32    29.88F
FALCON         FAIR      58   6  12 W23G33    29.90F
FORT CARSON    FAIR      60  10  13 SW33G43   29.82F
LIMON          FAIR      53  23  31 VRB3      29.89F
MONUMENT HILL  FAIR      54   9  16 W24G39    29.90F
TRINIDAD       FAIR      66  10  11 W38G48    29.88F
$$

COZ042>045-048>051-090-091-221900-
...NORTHEAST COLORADO...

CITY           SKY/WX    TMP DP  RH WIND       PRES   REMARKS
GREELEY ARPT   FAIR      52  24  33 N10       29.87F
AKRON          FAIR      55  17  22 NW16G24   29.87F
BURLINGTON     FAIR      60  24  25 N9        29.88F
WRAY           NOT AVBL
STERLING       FAIR      57  19  23 NW17      29.84F
HOLYOKE        FAIR      61  19  20 NW10      29.84F
FORT MORGAN    FAIR      56  19  23 NW16G23   29.88F
$$

COZ086-089-092>099-221900-
...SOUTHEAST COLORADO...

CITY           SKY/WX    TMP DP  RH WIND       PRES   REMARKS
PUEBLO         FAIR      67  18  15 W21       29.83F
LA JUNTA       FAIR      66  25  21 E10       29.85F
LAMAR          FAIR      64  27  24 E8        29.85F
SPRINGFIELD      N/A     72  15  11 NW13G24   29.86F
$$




USA.gov is the U.S. government's official web portal to all federal, state and local government web resources and services.